Tracking 19792 objects as of 16-Jul-2019
HD Live streaming from Space Station
objects crossing your sky now

METEOR 2-5 DEB

Track METEOR 2-5 DEB now!
10-day predictions


NORAD ID: 28594
Int'l Code: 1979-095E
Perigee: 801.8 km
Apogee: 828.5 km
Inclination: 81.2 °
Period: 101.0 minutes
Semi major axis: 7186 km
RCS: 0.0128 m2 (small)
Launch date: October 31, 1979
Source: Commonwealth of Independent States (former USSR) (CIS)
Launch site: PLESETSK MISSILE AND SPACE COMPLEX (PKMTR)

Note: This is SATELLITE DEBRIS
aabbcc
Your satellite tracking list
Your tracking list is empty




NASA's NSSDC Master Catalog

Two Line Element Set (TLE):
1 28594U 79095E   19197.00398249  .00001123  00000-0  47226-3 0  9991
2 28594  81.1972  86.5450 0018575  28.6562 331.5633 14.25155131771592
Source of the keplerian elements: AFSPC